Home > Weather > Townsville > Past weeks

Flag for Australia Weather for the Past 2 Weeks in Townsville, Queensland, Australia

Now
86 °F

Broken clouds.


Feels Like: 91 °F
Forecast: 79 / 88 °F
Wind: 15 mph from Northeast

Location: Townsville Amo

Current Time: Feb 11, 2016 at 2:45:39 PM

Latest Report: Feb 11, 2016 at 2:00 PM


Visibility: N/A

Pressure: 29.74 "Hg

Humidity: 59%

Dew point: 70 °F

Location of TownsvilleLocation

Historic Weather in Townsville — Graph

°F

Townsville Temperature Yesterday

Maximum temperature yesterday: 88 °F (at 12:00 PM)
Minimum temperature yesterday: 77 °F (at 5:00 AM)
Average temperature yesterday: 83 °F

High & Low Weather Summary for the Past Weeks

 TemperatureHumidityPressure
High91 °F (Jan 28, 1:00 PM)100% (Feb 5, 12:00 AM)29.83 "Hg (Feb 5, 12:00 AM)
Low75 °F (Feb 8, 9:00 PM)52% (Feb 9, 11:00 AM)29.50 "Hg (Feb 5, 4:30 PM)
Average85 °F78%29.72 "Hg
* Reported Jan 27 2:00 PM — Feb 11 1:30 PM, Townsville, Weather by CustomWeather, © 2016

Note: Actual official high and low records may vary slightly from our data, if they occured in-between our weather recording intervals... More about our weather records

Advertising

Townsville Weather History for the Previous 24 Hours

 ConditionsComfort  
Time TempWeatherWind HumidityBarometerVisibility
1:30 PM
Thu, Feb 11
86 °FScattered showers. Broken clouds.15 mph59%29.74 "HgN/A
1:00 PM86 °FPartly sunny.10 mph59%29.74 "HgN/A
12:30 PM86 °FBroken clouds.12 mph62%29.77 "HgN/A
11:30 AM86 °FScattered clouds.10 mph59%29.80 "HgN/A
11:00 AM86 °FPartly sunny.9 mph59%29.80 "HgN/A
10:30 AM84 °FScattered clouds.7 mph62%29.80 "HgN/A
10:00 AM86 °FPassing clouds.9 mph59%29.80 "HgN/A
9:30 AM84 °FPassing clouds.10 mph62%29.80 "HgN/A
9:00 AM84 °FPassing clouds.9 mph58%29.80 "HgN/A
8:30 AM84 °FPassing clouds.7 mph62%29.80 "HgN/A
7:30 AM81 °FPassing clouds.7 mph70%29.80 "HgN/A
7:00 AM79 °FPassing clouds.7 mph74%29.77 "HgN/A
6:30 AM77 °FPassing clouds.6 mph79%29.77 "HgN/A
6:00 AM77 °FClear.7 mph79%29.77 "HgN/A
5:30 AM77 °FClear.7 mph79%29.74 "HgN/A
5:00 AM77 °FClear.8 mph74%29.74 "HgN/A
4:00 AM77 °FClear.6 mph79%29.74 "HgN/A
3:30 AM77 °FClear.6 mph79%29.74 "HgN/A
3:00 AM79 °FClear.6 mph70%29.74 "HgN/A
2:30 AM79 °FPassing clouds.6 mph74%29.74 "HgN/A
2:00 AM79 °FClear.6 mph74%29.74 "HgN/A
1:30 AM79 °FClear.3 mph79%29.74 "HgN/A
1:00 AM79 °FClear.7 mph79%29.74 "HgN/A
12:30 AM81 °FClear.10 mph74%29.77 "HgN/A
12:00 AM81 °FPassing clouds.12 mph74%29.77 "HgN/A
11:30 PM
Wed, Feb 10
81 °FPassing clouds.9 mph74%29.77 "HgN/A
11:00 PM81 °FPassing clouds.10 mph74%29.77 "HgN/A
10:30 PM81 °FPassing clouds.10 mph74%29.77 "HgN/A
10:00 PM82 °FPartly cloudy.9 mph74%29.80 "HgN/A
9:30 PM82 °FPassing clouds.13 mph70%29.77 "HgN/A
9:00 PM82 °FPassing clouds.13 mph74%29.77 "HgN/A
8:30 PM82 °FPassing clouds.9 mph74%29.77 "HgN/A
8:00 PM82 °FPassing clouds.10 mph74%29.77 "HgN/A
7:30 PM82 °FPassing clouds.7 mph74%29.77 "HgN/A
7:00 PM82 °FPassing clouds.8 mph74%29.74 "HgN/A
6:30 PM84 °FPassing clouds.12 mph70%29.74 "HgN/A
6:00 PM84 °FPassing clouds.14 mph66%29.71 "HgN/A
5:30 PM86 °FPassing clouds.15 mph66%29.71 "HgN/A
5:00 PM86 °FPassing clouds.17 mph62%29.68 "HgN/A
4:30 PM86 °FPassing clouds.15 mph66%29.68 "HgN/A
4:00 PM86 °FPassing clouds.17 mph66%29.68 "HgN/A
3:00 PM86 °FPassing clouds.16 mph62%29.71 "HgN/A
2:00 PM88 °FScattered clouds.15 mph62%29.74 "HgN/A
Weather by CustomWeather, © 2016

See weather overviewHow to use our weather pages